Theta_e
286 286 286 287 288 289 289 289 291 294 295 296 296 296 295 294 293 293 291 291 290 289 289 288 288 288 288 287 287 287 287 288
285 285 285 285 286 287 288 288 288 290 293 294 294 294 294 293 293 292 292 291 290 289 288 288 288 288 287 287 287 287 287 289
284 283 282 283 285 286 286 287 288 289 290 292 294 293 292 291 292 292 291 290 290 289 288 288 288 288 287 287 287 286 287 288
283 282 281 282 283 285 285 286 287 287 287 289 289 290 289 288 288 290 288 288 288 288 287 287 287 287 287 287 286 286 286 288
281 281 281 281 281 283 284 285 286 286 286 285 286 288 288 287 287 287 287 287 287 287 287 286 286 286 285 286 285 285 285 287
280 280 280 279 279 280 281 283 285 286 284 284 285 286 286 283 285 286 286 286 287 285 284 284 286 286 285 285 285 284 283 283
278 279 279 278 278 277 280 281 285 286 285 284 284 285 285 284 284 285 284 283 284 285 284 284 286 289 289 287 285 284 283 282
274 274 277 276 278 276 278 281 282 283 284 285 283 285 285 285 284 284 284 283 285 284 284 285 286 290 290 289 286 286 283 283
274 273 275 276 272 272 274 278 279 280 281 283 284 285 286 285 285 284 284 284 284 285 285 283 283 289 290 288 286 284 281 282
274 271 271 274 273 270 274 274 275 278 279 281 283 285 286 285 286 286 285 284 285 285 283 283 283 289 289 287 282 281 279 280
271 267 266 274 269 271 273 276 277 280 280 281 282 284 285 286 285 285 284 284 284 283 283 283 283 289 289 287 283 280 279 276
265 271 273 270 269 273 274 276 277 281 280 279 279 281 286 286 286 285 283 284 283 282 282 282 282 287 290 288 283 282 280 279
270 271 272 269 274 274 277 277 275 278 278 278 278 280 285 286 285 284 283 282 281 281 280 281 281 285 290 289 286 285 281 280
274 276 276 274 277 278 278 275 276 275 274 275 276 279 285 285 285 283 283 282 281 281 280 280 280 283 289 290 288 286 281 281
274 275 276 276 277 277 276 275 273 272 272 274 276 279 284 285 285 284 283 283 282 281 281 281 280 281 284 286 287 284 283 283
274 275 276 276 274 272 273 271 271 271 272 273 276 280 284 284 285 284 285 285 283 283 284 282 280 281 284 285 284 284 283 279
273 273 275 270 270 268 266 267 268 270 271 273 276 279 283 283 284 287 287 287 288 288 287 285 287 286 286 287 287 287 285 279
271 271 270 266 266 263 262 264 266 268 270 271 274 278 282 283 283 282 285 287 288 288 288 287 287 287 287 287 287 287 285 280
266 266 263 262 264 260 260 262 265 267 269 270 273 277 282 283 283 283 282 282 283 287 287 288 288 287 287 287 287 283 283 281
262 262 259 258 261 258 258 262 265 267 269 271 274 279 281 283 283 283 283 283 283 282 286 286 288 288 288 287 283 282 282 280
Wind_Speed
9 11 10 11 11 14 13 12 11 11 5 5 8 9 8 8 10 10 7 9 9 8 7 6 6 6 6 5 5 6 4 4
7 9 8 8 9 11 13 14 13 12 10 5 6 6 6 8 9 10 9 10 11 10 9 8 8 7 6 6 6 7 5 5
6 6 8 9 10 10 10 12 12 11 11 8 5 4 5 7 8 9 11 10 11 10 10 9 8 8 8 8 7 7 7 6
6 6 6 7 9 11 10 10 12 11 11 10 7 5 6 6 6 7 9 9 10 11 11 10 9 9 8 8 8 8 7 6
5 5 5 6 6 8 10 9 9 11 11 10 8 6 6 6 6 7 8 10 10 10 9 9 9 8 7 8 8 6 6 6
4 6 7 5 3 6 6 7 10 11 11 11 10 7 5 4 6 6 8 9 9 9 7 7 9 7 9 8 9 8 6 5
6 6 7 7 7 6 7 7 8 11 12 10 10 8 6 5 6 8 7 7 9 10 10 10 7 15 17 12 9 8 9 8
7 7 7 7 6 7 7 9 9 10 11 11 9 10 7 6 7 8 9 8 10 10 10 11 9 19 18 16 8 9 7 8
7 6 7 5 4 5 5 6 8 10 10 10 10 10 8 7 9 8 8 11 11 11 10 10 9 21 21 17 9 9 7 8
7 6 6 7 5 4 6 5 5 9 10 9 11 12 8 10 11 9 9 9 9 10 11 11 9 23 23 19 8 7 7 6
8 5 4 8 3 3 7 7 9 10 13 12 12 13 12 11 11 10 9 10 9 9 11 11 10 20 23 18 7 8 6 3
5 7 8 4 3 5 6 9 8 8 13 13 12 14 13 11 10 10 10 9 10 11 9 10 12 15 24 24 9 8 8 7
6 7 8 5 4 6 9 8 5 8 12 14 13 12 10 11 10 10 11 11 11 11 8 8 9 14 23 26 17 15 9 9
7 7 7 6 6 7 10 4 8 8 11 12 13 12 12 10 10 9 11 10 10 10 9 8 7 8 21 23 21 18 8 6
6 6 9 6 7 8 6 5 7 9 11 12 11 12 11 8 9 10 10 10 10 10 10 9 9 9 9 10 11 13 8 10
6 6 11 6 6 6 5 3 8 8 10 12 10 12 10 9 9 10 11 12 11 11 11 12 12 13 19 17 12 11 10 8
6 7 10 6 7 5 4 4 6 9 8 9 9 9 9 7 7 17 16 20 19 17 12 8 10 19 25 26 23 21 23 6
7 7 7 6 8 4 4 5 6 9 10 9 10 9 9 7 8 8 11 17 19 17 18 17 15 24 27 26 23 24 24 7
7 7 7 7 10 4 5 6 7 9 14 10 9 10 9 7 8 8 9 9 8 14 15 16 18 23 25 25 22 13 12 7
7 7 6 7 9 4 5 6 9 9 9 9 8 10 9 7 7 7 8 8 8 5 9 11 17 20 24 27 12 13 11 8
Wind_Direction
354 353 352 350 346 346 353 353 336 338 281 225 200 194 185 172 181 180 165 162 167 172 165 167 166 160 156 146 151 137 139 132
343 340 336 340 344 342 345 346 347 340 331 273 237 205 175 184 183 182 169 170 171 173 170 174 170 165 159 151 151 139 136 131
329 324 335 343 345 343 336 338 338 335 327 311 259 229 194 193 188 173 175 172 171 167 171 173 172 167 165 159 154 146 151 153
315 321 322 331 338 338 335 326 326 331 332 324 298 232 219 209 184 173 161 165 163 168 175 175 174 169 168 159 158 153 158 154
308 314 297 304 323 323 325 323 319 322 323 320 306 263 232 215 182 173 170 166 169 175 171 174 168 169 160 156 159 153 153 153
289 307 304 304 302 306 304 312 323 319 310 308 306 277 236 182 182 164 169 175 171 158 158 159 170 171 166 164 162 157 152 155
243 281 299 307 307 286 293 308 316 315 308 297 300 288 233 203 181 174 171 162 158 168 169 171 179 180 176 166 160 160 163 166
229 248 262 270 268 279 291 308 313 311 309 304 290 295 245 206 184 183 179 171 178 170 167 180 181 187 181 173 166 169 170 164
238 250 252 241 250 254 259 293 303 308 306 306 297 287 263 213 201 191 180 181 183 182 178 175 185 188 186 177 178 180 170 170
231 236 259 275 276 285 299 290 297 306 307 310 304 290 261 228 212 200 188 190 188 189 181 181 183 188 186 180 169 172 173 167
245 238 239 269 252 262 283 297 300 312 310 307 303 289 266 232 217 201 194 195 189 185 187 187 180 188 188 179 168 169 170 168
233 237 246 253 232 265 275 282 276 303 306 299 296 287 266 232 212 200 192 188 187 186 181 180 179 188 189 183 174 175 170 177
236 237 252 228 208 254 274 281 265 296 300 295 290 285 270 228 210 197 188 186 186 180 176 183 182 188 193 191 187 177 173 185
219 248 252 229 207 248 272 281 297 292 294 290 288 282 268 225 206 192 191 191 188 184 184 182 176 188 193 192 191 188 183 170
215 241 265 230 220 223 264 284 283 286 291 290 285 284 263 220 206 198 194 193 190 188 185 179 175 181 184 187 184 190 178 176
218 236 251 250 241 227 238 260 275 279 286 287 282 279 263 221 209 204 204 197 192 194 190 178 184 193 184 176 180 179 172 131
232 239 252 241 258 245 224 229 255 279 283 279 285 287 261 221 218 214 208 201 208 205 195 193 191 176 181 182 182 173 158 138
259 251 258 258 266 246 240 237 240 263 275 275 273 275 262 220 209 199 212 202 204 201 193 182 179 171 180 181 175 171 162 167
275 255 251 262 267 240 255 245 252 260 265 263 264 266 255 221 207 198 192 187 191 202 186 184 177 174 178 173 161 168 183 182
268 262 265 262 270 256 250 254 261 266 263 259 263 265 246 218 199 193 185 183 167 150 173 171 171 171 173 170 171 175 180 184